Starlink 1474

operational
NORAD ID: 45738 Int'l Des: 2020-038 Owner: SPXS Country: US Constellation: starlink
LEOCIRCULAR

Starlink 1474について

説明を読み込み中...

リアルタイム位置

3D地球を読み込み中...

次回通過

高度履歴

Altitude vs Time

uPlot chart will show altitude changes over time

軌道要素

1 45738U 20038J 25257.33332862 .00035370 00000-0 45810-3 0 9990
2 45738 53.0395 224.9774 0005241 85.7113 274.4498 15.58559530290786
Epoch: Sep 14, 2025 • Age: 25 hours

現在のステータス

高度 390.9 km
速度 7.68 km/s
衛星直下点 26.74°N, 115.56°W
打ち上げ日 Jun 13, 2020
運用期間 5.2 years
タイプ internet

技術仕様

分類 Payload
質量 260.00 kg
乾燥質量 248.00 kg
総質量 260.00 kg
長さ 0.20 m
直径 2.80 m
スパン 9.00 m
形状 Box + pan
製造者 SPXS
バスタイプ Starlink
フェーズステータス In Orbit
所有者/国 SPXS/US

大規模コンステレーション

Loading constellations...